Find Zhongyuan-2

NORAD ID: 61869 Int'l Des: 2024-203 Owner: PIESAT Country: CN operational
LEOCIRCULARRETROGRADESSO

Current View

Loading 3D Globe...

About Zhongyuan-2

Description loading...

Upcoming Passes

Passes for default location (London). Set your location on the main map for personalized predictions.

Altitude History

Loading altitude history...

Two-Line Element Set

1 61869U 24203A 26151.20683394 .00020357 00000-0 71060-3 0 9995
2 61869 97.4206 221.5347 0012006 35.7716 324.4326 15.29559116 86363
Epoch: May 31, 2026 • Age: 11 hours

Current Status

Altitude 472.9 km
Velocity 7.63 km/s
Sub-Earth Point 2.38°N, 93.05°E
Launch Date Nov 9, 2024
Age 1.5 years
Type other

Technical Details

Classification Payload
Mass 320.00 kg
Dry Mass 320.00 kg
Total Mass 320.00 kg
Length 1.00 m
Diameter 1.00 m
Span 4.00 m
Shape Box + 2 Pan
Manufacturer YINHE
Bus Type Piesat
Phase Status In Orbit
Owner/State PIESAT/CN

Most Searched